<?xml version="1.0" encoding="UTF-8" standalone="no" ?>
<gpx xmlns="http://www.topografix.com/GPX/1/1" xmlns:xsi="http://www.w3.org/2001/XMLSchema-instance" xsi:schemaLocation="http://www.topografix.com/GPX/1/1 http://www.topografix.com/GPX/1/1/gpx.xsd" version="1.1" creator="VisuGPX - https://www.visugpx.com">
  <metadata>
    <name>circuit du crinchon</name>
    <desc><![CDATA[circuit autour d arras]]></desc>
  </metadata>
  <trk>
    <name><![CDATA[track]]></name>
    <trkseg>
      <trkpt lat="50.30049" lon="2.76434">
        <ele>58</ele>
        <time>2009-04-06T19:05:39Z</time>
      </trkpt>
      <trkpt lat="50.30045" lon="2.76437">
        <ele>58</ele>
        <time>2009-04-06T19:05:39Z</time>
      </trkpt>
      <trkpt lat="50.30021" lon="2.76381">
        <ele>58</ele>
        <time>2009-04-06T19:05:39Z</time>
      </trkpt>
      <trkpt lat="50.30023" lon="2.76324">
        <ele>58</ele>
        <time>2009-04-06T19:05:39Z</time>
      </trkpt>
      <trkpt lat="50.29996" lon="2.76293">
        <ele>58</ele>
        <time>2009-04-06T19:05:39Z</time>
      </trkpt>
      <trkpt lat="50.30004" lon="2.76246">
        <ele>57</ele>
        <time>2009-04-06T19:05:39Z</time>
      </trkpt>
      <trkpt lat="50.30004" lon="2.76199">
        <ele>57</ele>
        <time>2009-04-06T19:05:39Z</time>
      </trkpt>
      <trkpt lat="50.29984" lon="2.76211">
        <ele>57</ele>
        <time>2009-04-06T19:05:39Z</time>
      </trkpt>
      <trkpt lat="50.29965" lon="2.76228">
        <ele>58</ele>
        <time>2009-04-06T19:05:39Z</time>
      </trkpt>
      <trkpt lat="50.29941" lon="2.76235">
        <ele>59</ele>
        <time>2009-04-06T19:05:39Z</time>
      </trkpt>
      <trkpt lat="50.29899" lon="2.76253">
        <ele>62</ele>
        <time>2009-04-06T19:05:39Z</time>
      </trkpt>
      <trkpt lat="50.29744" lon="2.76264">
        <ele>75</ele>
        <time>2009-04-06T19:05:39Z</time>
      </trkpt>
      <trkpt lat="50.29728" lon="2.76261">
        <ele>75</ele>
        <time>2009-04-06T19:05:39Z</time>
      </trkpt>
      <trkpt lat="50.29702" lon="2.76267">
        <ele>76</ele>
        <time>2009-04-06T19:05:39Z</time>
      </trkpt>
      <trkpt lat="50.29702" lon="2.76249">
        <ele>76</ele>
        <time>2009-04-06T19:05:39Z</time>
      </trkpt>
      <trkpt lat="50.29692" lon="2.76248">
        <ele>77</ele>
        <time>2009-04-06T19:05:39Z</time>
      </trkpt>
      <trkpt lat="50.29687" lon="2.76261">
        <ele>77</ele>
        <time>2009-04-06T19:05:39Z</time>
      </trkpt>
      <trkpt lat="50.29673" lon="2.76226">
        <ele>77</ele>
        <time>2009-04-06T19:05:39Z</time>
      </trkpt>
      <trkpt lat="50.29657" lon="2.76242">
        <ele>77</ele>
        <time>2009-04-06T19:05:39Z</time>
      </trkpt>
      <trkpt lat="50.29546" lon="2.75965">
        <ele>77</ele>
        <time>2009-04-06T19:05:39Z</time>
      </trkpt>
      <trkpt lat="50.29498" lon="2.75968">
        <ele>76</ele>
        <time>2009-04-06T19:05:39Z</time>
      </trkpt>
      <trkpt lat="50.295" lon="2.7595">
        <ele>77</ele>
        <time>2009-04-06T19:05:39Z</time>
      </trkpt>
      <trkpt lat="50.2946" lon="2.75835">
        <ele>77</ele>
        <time>2009-04-06T19:05:39Z</time>
      </trkpt>
      <trkpt lat="50.29425" lon="2.75862">
        <ele>76</ele>
        <time>2009-04-06T19:05:39Z</time>
      </trkpt>
      <trkpt lat="50.29413" lon="2.75873">
        <ele>76</ele>
        <time>2009-04-06T19:05:39Z</time>
      </trkpt>
      <trkpt lat="50.29401" lon="2.75889">
        <ele>76</ele>
        <time>2009-04-06T19:05:39Z</time>
      </trkpt>
      <trkpt lat="50.29335" lon="2.759">
        <ele>76</ele>
        <time>2009-04-06T19:05:39Z</time>
      </trkpt>
      <trkpt lat="50.29314" lon="2.75888">
        <ele>76</ele>
        <time>2009-04-06T19:05:39Z</time>
      </trkpt>
      <trkpt lat="50.29295" lon="2.75893">
        <ele>75</ele>
        <time>2009-04-06T19:05:39Z</time>
      </trkpt>
      <trkpt lat="50.29277" lon="2.75932">
        <ele>75</ele>
        <time>2009-04-06T19:05:39Z</time>
      </trkpt>
      <trkpt lat="50.29159" lon="2.75954">
        <ele>71</ele>
        <time>2009-04-06T19:05:39Z</time>
      </trkpt>
      <trkpt lat="50.29153" lon="2.75967">
        <ele>71</ele>
        <time>2009-04-06T19:05:39Z</time>
      </trkpt>
      <trkpt lat="50.29146" lon="2.75993">
        <ele>71</ele>
        <time>2009-04-06T19:05:39Z</time>
      </trkpt>
      <trkpt lat="50.29147" lon="2.76028">
        <ele>71</ele>
        <time>2009-04-06T19:05:39Z</time>
      </trkpt>
      <trkpt lat="50.29152" lon="2.76056">
        <ele>71</ele>
        <time>2009-04-06T19:05:39Z</time>
      </trkpt>
      <trkpt lat="50.29063" lon="2.76103">
        <ele>66</ele>
        <time>2009-04-06T19:05:39Z</time>
      </trkpt>
      <trkpt lat="50.28983" lon="2.7615">
        <ele>64</ele>
        <time>2009-04-06T19:05:39Z</time>
      </trkpt>
      <trkpt lat="50.28946" lon="2.76039">
        <ele>65</ele>
        <time>2009-04-06T19:05:39Z</time>
      </trkpt>
      <trkpt lat="50.28931" lon="2.75989">
        <ele>65</ele>
        <time>2009-04-06T19:05:39Z</time>
      </trkpt>
      <trkpt lat="50.28693" lon="2.7609">
        <ele>62</ele>
        <time>2009-04-06T19:05:39Z</time>
      </trkpt>
      <trkpt lat="50.28669" lon="2.76059">
        <ele>62</ele>
        <time>2009-04-06T19:05:39Z</time>
      </trkpt>
      <trkpt lat="50.2865" lon="2.7604">
        <ele>62</ele>
        <time>2009-04-06T19:05:39Z</time>
      </trkpt>
      <trkpt lat="50.28616" lon="2.75954">
        <ele>62</ele>
        <time>2009-04-06T19:05:39Z</time>
      </trkpt>
      <trkpt lat="50.2858" lon="2.75841">
        <ele>63</ele>
        <time>2009-04-06T19:05:39Z</time>
      </trkpt>
      <trkpt lat="50.28565" lon="2.7581">
        <ele>63</ele>
        <time>2009-04-06T19:05:39Z</time>
      </trkpt>
      <trkpt lat="50.28508" lon="2.75634">
        <ele>63</ele>
        <time>2009-04-06T19:05:39Z</time>
      </trkpt>
      <trkpt lat="50.28497" lon="2.75483">
        <ele>63</ele>
        <time>2009-04-06T19:05:39Z</time>
      </trkpt>
      <trkpt lat="50.2847" lon="2.75374">
        <ele>62</ele>
        <time>2009-04-06T19:05:39Z</time>
      </trkpt>
      <trkpt lat="50.28455" lon="2.75349">
        <ele>62</ele>
        <time>2009-04-06T19:05:39Z</time>
      </trkpt>
      <trkpt lat="50.28426" lon="2.75246">
        <ele>62</ele>
        <time>2009-04-06T19:05:39Z</time>
      </trkpt>
      <trkpt lat="50.28423" lon="2.75193">
        <ele>62</ele>
        <time>2009-04-06T19:05:39Z</time>
      </trkpt>
      <trkpt lat="50.28409" lon="2.75169">
        <ele>62</ele>
        <time>2009-04-06T19:05:39Z</time>
      </trkpt>
      <trkpt lat="50.28381" lon="2.75059">
        <ele>63</ele>
        <time>2009-04-06T19:05:39Z</time>
      </trkpt>
      <trkpt lat="50.28312" lon="2.7479">
        <ele>63</ele>
        <time>2009-04-06T19:05:39Z</time>
      </trkpt>
      <trkpt lat="50.28268" lon="2.74783">
        <ele>64</ele>
        <time>2009-04-06T19:05:39Z</time>
      </trkpt>
      <trkpt lat="50.28197" lon="2.7481">
        <ele>71</ele>
        <time>2009-04-06T19:05:39Z</time>
      </trkpt>
      <trkpt lat="50.28103" lon="2.74854">
        <ele>76</ele>
        <time>2009-04-06T19:05:39Z</time>
      </trkpt>
      <trkpt lat="50.28073" lon="2.74873">
        <ele>77</ele>
        <time>2009-04-06T19:05:39Z</time>
      </trkpt>
      <trkpt lat="50.27951" lon="2.75006">
        <ele>78</ele>
        <time>2009-04-06T19:05:39Z</time>
      </trkpt>
      <trkpt lat="50.27707" lon="2.74646">
        <ele>76</ele>
        <time>2009-04-06T19:05:39Z</time>
      </trkpt>
      <trkpt lat="50.27731" lon="2.7461">
        <ele>77</ele>
        <time>2009-04-06T19:05:39Z</time>
      </trkpt>
      <trkpt lat="50.27749" lon="2.74571">
        <ele>78</ele>
        <time>2009-04-06T19:05:39Z</time>
      </trkpt>
      <trkpt lat="50.27766" lon="2.74509">
        <ele>79</ele>
        <time>2009-04-06T19:05:39Z</time>
      </trkpt>
      <trkpt lat="50.27791" lon="2.74372">
        <ele>82</ele>
        <time>2009-04-06T19:05:39Z</time>
      </trkpt>
      <trkpt lat="50.27827" lon="2.74269">
        <ele>83</ele>
        <time>2009-04-06T19:05:39Z</time>
      </trkpt>
      <trkpt lat="50.27823" lon="2.74244">
        <ele>83</ele>
        <time>2009-04-06T19:05:39Z</time>
      </trkpt>
      <trkpt lat="50.27808" lon="2.74232">
        <ele>83</ele>
        <time>2009-04-06T19:05:39Z</time>
      </trkpt>
      <trkpt lat="50.27757" lon="2.74233">
        <ele>82</ele>
        <time>2009-04-06T19:05:39Z</time>
      </trkpt>
      <trkpt lat="50.27753" lon="2.74216">
        <ele>82</ele>
        <time>2009-04-06T19:05:39Z</time>
      </trkpt>
      <trkpt lat="50.27694" lon="2.74238">
        <ele>80</ele>
        <time>2009-04-06T19:05:39Z</time>
      </trkpt>
      <trkpt lat="50.27542" lon="2.74305">
        <ele>78</ele>
        <time>2009-04-06T19:05:39Z</time>
      </trkpt>
      <trkpt lat="50.27533" lon="2.743">
        <ele>78</ele>
        <time>2009-04-06T19:05:39Z</time>
      </trkpt>
      <trkpt lat="50.27482" lon="2.74205">
        <ele>79</ele>
        <time>2009-04-06T19:05:39Z</time>
      </trkpt>
      <trkpt lat="50.27434" lon="2.74131">
        <ele>80</ele>
        <time>2009-04-06T19:05:39Z</time>
      </trkpt>
      <trkpt lat="50.2741" lon="2.74076">
        <ele>80</ele>
        <time>2009-04-06T19:05:39Z</time>
      </trkpt>
      <trkpt lat="50.27177" lon="2.73463">
        <ele>90</ele>
        <time>2009-04-06T19:05:39Z</time>
      </trkpt>
      <trkpt lat="50.27129" lon="2.73517">
        <ele>90</ele>
        <time>2009-04-06T19:05:39Z</time>
      </trkpt>
      <trkpt lat="50.27066" lon="2.73607">
        <ele>90</ele>
        <time>2009-04-06T19:05:39Z</time>
      </trkpt>
      <trkpt lat="50.26905" lon="2.73812">
        <ele>90</ele>
        <time>2009-04-06T19:05:39Z</time>
      </trkpt>
      <trkpt lat="50.26884" lon="2.73802">
        <ele>90</ele>
        <time>2009-04-06T19:05:39Z</time>
      </trkpt>
      <trkpt lat="50.26843" lon="2.7373">
        <ele>91</ele>
        <time>2009-04-06T19:05:39Z</time>
      </trkpt>
      <trkpt lat="50.26834" lon="2.73707">
        <ele>91</ele>
        <time>2009-04-06T19:05:39Z</time>
      </trkpt>
      <trkpt lat="50.26809" lon="2.73657">
        <ele>91</ele>
        <time>2009-04-06T19:05:39Z</time>
      </trkpt>
      <trkpt lat="50.26763" lon="2.7358">
        <ele>92</ele>
        <time>2009-04-06T19:05:39Z</time>
      </trkpt>
      <trkpt lat="50.26704" lon="2.73469">
        <ele>94</ele>
        <time>2009-04-06T19:05:39Z</time>
      </trkpt>
      <trkpt lat="50.26633" lon="2.73324">
        <ele>96</ele>
        <time>2009-04-06T19:05:39Z</time>
      </trkpt>
      <trkpt lat="50.26579" lon="2.73221">
        <ele>98</ele>
        <time>2009-04-06T19:05:39Z</time>
      </trkpt>
      <trkpt lat="50.2657" lon="2.73222">
        <ele>99</ele>
        <time>2009-04-06T19:05:39Z</time>
      </trkpt>
      <trkpt lat="50.26563" lon="2.73232">
        <ele>99</ele>
        <time>2009-04-06T19:05:39Z</time>
      </trkpt>
      <trkpt lat="50.26552" lon="2.73233">
        <ele>99</ele>
        <time>2009-04-06T19:05:39Z</time>
      </trkpt>
      <trkpt lat="50.26433" lon="2.73463">
        <ele>94</ele>
        <time>2009-04-06T19:05:39Z</time>
      </trkpt>
      <trkpt lat="50.26182" lon="2.73965">
        <ele>87</ele>
        <time>2009-04-06T19:05:39Z</time>
      </trkpt>
      <trkpt lat="50.25897" lon="2.73612">
        <ele>88</ele>
        <time>2009-04-06T19:05:39Z</time>
      </trkpt>
      <trkpt lat="50.25636" lon="2.73281">
        <ele>82</ele>
        <time>2009-04-06T19:05:39Z</time>
      </trkpt>
      <trkpt lat="50.25581" lon="2.73213">
        <ele>81</ele>
        <time>2009-04-06T19:05:39Z</time>
      </trkpt>
      <trkpt lat="50.25498" lon="2.73191">
        <ele>80</ele>
        <time>2009-04-06T19:05:39Z</time>
      </trkpt>
      <trkpt lat="50.25411" lon="2.73123">
        <ele>78</ele>
        <time>2009-04-06T19:05:39Z</time>
      </trkpt>
      <trkpt lat="50.25382" lon="2.73109">
        <ele>76</ele>
        <time>2009-04-06T19:05:39Z</time>
      </trkpt>
      <trkpt lat="50.2536" lon="2.73104">
        <ele>76</ele>
        <time>2009-04-06T19:05:39Z</time>
      </trkpt>
      <trkpt lat="50.25223" lon="2.73114">
        <ele>75</ele>
        <time>2009-04-06T19:05:39Z</time>
      </trkpt>
      <trkpt lat="50.25098" lon="2.73112">
        <ele>75</ele>
        <time>2009-04-06T19:05:39Z</time>
      </trkpt>
      <trkpt lat="50.25094" lon="2.73123">
        <ele>74</ele>
        <time>2009-04-06T19:05:39Z</time>
      </trkpt>
      <trkpt lat="50.25132" lon="2.73161">
        <ele>74</ele>
        <time>2009-04-06T19:05:39Z</time>
      </trkpt>
      <trkpt lat="50.25181" lon="2.73222">
        <ele>74</ele>
        <time>2009-04-06T19:05:39Z</time>
      </trkpt>
      <trkpt lat="50.25315" lon="2.73401">
        <ele>73</ele>
        <time>2009-04-06T19:05:39Z</time>
      </trkpt>
      <trkpt lat="50.25301" lon="2.73424">
        <ele>73</ele>
        <time>2009-04-06T19:05:39Z</time>
      </trkpt>
      <trkpt lat="50.25398" lon="2.73634">
        <ele>73</ele>
        <time>2009-04-06T19:05:39Z</time>
      </trkpt>
      <trkpt lat="50.25497" lon="2.73896">
        <ele>72</ele>
        <time>2009-04-06T19:05:39Z</time>
      </trkpt>
      <trkpt lat="50.25533" lon="2.73979">
        <ele>72</ele>
        <time>2009-04-06T19:05:39Z</time>
      </trkpt>
      <trkpt lat="50.25565" lon="2.74088">
        <ele>70</ele>
        <time>2009-04-06T19:05:39Z</time>
      </trkpt>
      <trkpt lat="50.25567" lon="2.74134">
        <ele>69</ele>
        <time>2009-04-06T19:05:39Z</time>
      </trkpt>
      <trkpt lat="50.25574" lon="2.74172">
        <ele>69</ele>
        <time>2009-04-06T19:05:39Z</time>
      </trkpt>
      <trkpt lat="50.25497" lon="2.74236">
        <ele>70</ele>
        <time>2009-04-06T19:05:39Z</time>
      </trkpt>
      <trkpt lat="50.25519" lon="2.74291">
        <ele>70</ele>
        <time>2009-04-06T19:05:39Z</time>
      </trkpt>
      <trkpt lat="50.25523" lon="2.74318">
        <ele>70</ele>
        <time>2009-04-06T19:05:39Z</time>
      </trkpt>
      <trkpt lat="50.25523" lon="2.74354">
        <ele>70</ele>
        <time>2009-04-06T19:05:39Z</time>
      </trkpt>
      <trkpt lat="50.2553" lon="2.74374">
        <ele>70</ele>
        <time>2009-04-06T19:05:39Z</time>
      </trkpt>
      <trkpt lat="50.25554" lon="2.74426">
        <ele>70</ele>
        <time>2009-04-06T19:05:39Z</time>
      </trkpt>
      <trkpt lat="50.25561" lon="2.74445">
        <ele>70</ele>
        <time>2009-04-06T19:05:39Z</time>
      </trkpt>
      <trkpt lat="50.25564" lon="2.74469">
        <ele>70</ele>
        <time>2009-04-06T19:05:39Z</time>
      </trkpt>
      <trkpt lat="50.25566" lon="2.74513">
        <ele>71</ele>
        <time>2009-04-06T19:05:39Z</time>
      </trkpt>
      <trkpt lat="50.25573" lon="2.74548">
        <ele>71</ele>
        <time>2009-04-06T19:05:39Z</time>
      </trkpt>
      <trkpt lat="50.25583" lon="2.74575">
        <ele>71</ele>
        <time>2009-04-06T19:05:39Z</time>
      </trkpt>
      <trkpt lat="50.25598" lon="2.74604">
        <ele>71</ele>
        <time>2009-04-06T19:05:39Z</time>
      </trkpt>
      <trkpt lat="50.25623" lon="2.74613">
        <ele>69</ele>
        <time>2009-04-06T19:05:39Z</time>
      </trkpt>
      <trkpt lat="50.25642" lon="2.74616">
        <ele>68</ele>
        <time>2009-04-06T19:05:39Z</time>
      </trkpt>
      <trkpt lat="50.25656" lon="2.74623">
        <ele>68</ele>
        <time>2009-04-06T19:05:39Z</time>
      </trkpt>
      <trkpt lat="50.25684" lon="2.74653">
        <ele>68</ele>
        <time>2009-04-06T19:05:39Z</time>
      </trkpt>
      <trkpt lat="50.25697" lon="2.74669">
        <ele>68</ele>
        <time>2009-04-06T19:05:39Z</time>
      </trkpt>
      <trkpt lat="50.25707" lon="2.74689">
        <ele>68</ele>
        <time>2009-04-06T19:05:39Z</time>
      </trkpt>
      <trkpt lat="50.25717" lon="2.74719">
        <ele>68</ele>
        <time>2009-04-06T19:05:39Z</time>
      </trkpt>
      <trkpt lat="50.25794" lon="2.74845">
        <ele>68</ele>
        <time>2009-04-06T19:05:39Z</time>
      </trkpt>
      <trkpt lat="50.25818" lon="2.74906">
        <ele>68</ele>
        <time>2009-04-06T19:05:39Z</time>
      </trkpt>
      <trkpt lat="50.25833" lon="2.74959">
        <ele>68</ele>
        <time>2009-04-06T19:05:39Z</time>
      </trkpt>
      <trkpt lat="50.25839" lon="2.75022">
        <ele>68</ele>
        <time>2009-04-06T19:05:39Z</time>
      </trkpt>
      <trkpt lat="50.25874" lon="2.75195">
        <ele>68</ele>
        <time>2009-04-06T19:05:39Z</time>
      </trkpt>
      <trkpt lat="50.25936" lon="2.75398">
        <ele>69</ele>
        <time>2009-04-06T19:05:39Z</time>
      </trkpt>
      <trkpt lat="50.25954" lon="2.75437">
        <ele>68</ele>
        <time>2009-04-06T19:05:39Z</time>
      </trkpt>
      <trkpt lat="50.25987" lon="2.75498">
        <ele>67</ele>
        <time>2009-04-06T19:05:39Z</time>
      </trkpt>
      <trkpt lat="50.25997" lon="2.75526">
        <ele>67</ele>
        <time>2009-04-06T19:05:39Z</time>
      </trkpt>
      <trkpt lat="50.25999" lon="2.75548">
        <ele>67</ele>
        <time>2009-04-06T19:05:39Z</time>
      </trkpt>
      <trkpt lat="50.26022" lon="2.7551">
        <ele>67</ele>
        <time>2009-04-06T19:05:39Z</time>
      </trkpt>
      <trkpt lat="50.26039" lon="2.75482">
        <ele>67</ele>
        <time>2009-04-06T19:05:39Z</time>
      </trkpt>
      <trkpt lat="50.26044" lon="2.75482">
        <ele>67</ele>
        <time>2009-04-06T19:05:39Z</time>
      </trkpt>
      <trkpt lat="50.26149" lon="2.75599">
        <ele>67</ele>
        <time>2009-04-06T19:05:39Z</time>
      </trkpt>
      <trkpt lat="50.26223" lon="2.75679">
        <ele>67</ele>
        <time>2009-04-06T19:05:39Z</time>
      </trkpt>
      <trkpt lat="50.26303" lon="2.75735">
        <ele>67</ele>
        <time>2009-04-06T19:05:39Z</time>
      </trkpt>
      <trkpt lat="50.26314" lon="2.75755">
        <ele>67</ele>
        <time>2009-04-06T19:05:39Z</time>
      </trkpt>
      <trkpt lat="50.26328" lon="2.75811">
        <ele>67</ele>
        <time>2009-04-06T19:05:39Z</time>
      </trkpt>
      <trkpt lat="50.26373" lon="2.75886">
        <ele>67</ele>
        <time>2009-04-06T19:05:39Z</time>
      </trkpt>
      <trkpt lat="50.26415" lon="2.75918">
        <ele>67</ele>
        <time>2009-04-06T19:05:39Z</time>
      </trkpt>
      <trkpt lat="50.26468" lon="2.7595">
        <ele>67</ele>
        <time>2009-04-06T19:05:39Z</time>
      </trkpt>
      <trkpt lat="50.26489" lon="2.7595">
        <ele>67</ele>
        <time>2009-04-06T19:05:39Z</time>
      </trkpt>
      <trkpt lat="50.2651" lon="2.75907">
        <ele>66</ele>
        <time>2009-04-06T19:05:39Z</time>
      </trkpt>
      <trkpt lat="50.26549" lon="2.75849">
        <ele>66</ele>
        <time>2009-04-06T19:05:39Z</time>
      </trkpt>
      <trkpt lat="50.26578" lon="2.75836">
        <ele>65</ele>
        <time>2009-04-06T19:05:39Z</time>
      </trkpt>
      <trkpt lat="50.26615" lon="2.75846">
        <ele>65</ele>
        <time>2009-04-06T19:05:39Z</time>
      </trkpt>
      <trkpt lat="50.26625" lon="2.75847">
        <ele>65</ele>
        <time>2009-04-06T19:05:39Z</time>
      </trkpt>
      <trkpt lat="50.26645" lon="2.75822">
        <ele>65</ele>
        <time>2009-04-06T19:05:39Z</time>
      </trkpt>
      <trkpt lat="50.26654" lon="2.75797">
        <ele>65</ele>
        <time>2009-04-06T19:05:39Z</time>
      </trkpt>
      <trkpt lat="50.2668" lon="2.75757">
        <ele>65</ele>
        <time>2009-04-06T19:05:39Z</time>
      </trkpt>
      <trkpt lat="50.26694" lon="2.75771">
        <ele>65</ele>
        <time>2009-04-06T19:05:39Z</time>
      </trkpt>
      <trkpt lat="50.26722" lon="2.75719">
        <ele>65</ele>
        <time>2009-04-06T19:05:39Z</time>
      </trkpt>
      <trkpt lat="50.2674" lon="2.75705">
        <ele>65</ele>
        <time>2009-04-06T19:05:39Z</time>
      </trkpt>
      <trkpt lat="50.26792" lon="2.75674">
        <ele>64</ele>
        <time>2009-04-06T19:05:39Z</time>
      </trkpt>
      <trkpt lat="50.26833" lon="2.75661">
        <ele>64</ele>
        <time>2009-04-06T19:05:39Z</time>
      </trkpt>
      <trkpt lat="50.2686" lon="2.75659">
        <ele>64</ele>
        <time>2009-04-06T19:05:39Z</time>
      </trkpt>
      <trkpt lat="50.26892" lon="2.75664">
        <ele>64</ele>
        <time>2009-04-06T19:05:39Z</time>
      </trkpt>
      <trkpt lat="50.26941" lon="2.75679">
        <ele>65</ele>
        <time>2009-04-06T19:05:39Z</time>
      </trkpt>
      <trkpt lat="50.26977" lon="2.75674">
        <ele>65</ele>
        <time>2009-04-06T19:05:39Z</time>
      </trkpt>
      <trkpt lat="50.27035" lon="2.75677">
        <ele>65</ele>
        <time>2009-04-06T19:05:39Z</time>
      </trkpt>
      <trkpt lat="50.27098" lon="2.75671">
        <ele>65</ele>
        <time>2009-04-06T19:05:39Z</time>
      </trkpt>
      <trkpt lat="50.2719" lon="2.75677">
        <ele>63</ele>
        <time>2009-04-06T19:05:39Z</time>
      </trkpt>
      <trkpt lat="50.27254" lon="2.75691">
        <ele>64</ele>
        <time>2009-04-06T19:05:39Z</time>
      </trkpt>
      <trkpt lat="50.27282" lon="2.7564">
        <ele>62</ele>
        <time>2009-04-06T19:05:39Z</time>
      </trkpt>
      <trkpt lat="50.27293" lon="2.75623">
        <ele>62</ele>
        <time>2009-04-06T19:05:39Z</time>
      </trkpt>
      <trkpt lat="50.27347" lon="2.75595">
        <ele>62</ele>
        <time>2009-04-06T19:05:39Z</time>
      </trkpt>
      <trkpt lat="50.27355" lon="2.75595">
        <ele>62</ele>
        <time>2009-04-06T19:05:39Z</time>
      </trkpt>
      <trkpt lat="50.27367" lon="2.75599">
        <ele>62</ele>
        <time>2009-04-06T19:05:39Z</time>
      </trkpt>
      <trkpt lat="50.27401" lon="2.7569">
        <ele>63</ele>
        <time>2009-04-06T19:05:39Z</time>
      </trkpt>
      <trkpt lat="50.27429" lon="2.75719">
        <ele>63</ele>
        <time>2009-04-06T19:05:39Z</time>
      </trkpt>
      <trkpt lat="50.27451" lon="2.75736">
        <ele>63</ele>
        <time>2009-04-06T19:05:39Z</time>
      </trkpt>
      <trkpt lat="50.27549" lon="2.75796">
        <ele>64</ele>
        <time>2009-04-06T19:05:39Z</time>
      </trkpt>
      <trkpt lat="50.27574" lon="2.75826">
        <ele>64</ele>
        <time>2009-04-06T19:05:39Z</time>
      </trkpt>
      <trkpt lat="50.27602" lon="2.7585">
        <ele>63</ele>
        <time>2009-04-06T19:05:39Z</time>
      </trkpt>
      <trkpt lat="50.27638" lon="2.75887">
        <ele>63</ele>
        <time>2009-04-06T19:05:39Z</time>
      </trkpt>
      <trkpt lat="50.27654" lon="2.759">
        <ele>63</ele>
        <time>2009-04-06T19:05:39Z</time>
      </trkpt>
      <trkpt lat="50.27703" lon="2.7591">
        <ele>63</ele>
        <time>2009-04-06T19:05:39Z</time>
      </trkpt>
      <trkpt lat="50.27721" lon="2.75921">
        <ele>62</ele>
        <time>2009-04-06T19:05:39Z</time>
      </trkpt>
      <trkpt lat="50.27735" lon="2.75963">
        <ele>62</ele>
        <time>2009-04-06T19:05:39Z</time>
      </trkpt>
      <trkpt lat="50.27748" lon="2.75982">
        <ele>62</ele>
        <time>2009-04-06T19:05:39Z</time>
      </trkpt>
      <trkpt lat="50.27763" lon="2.75982">
        <ele>62</ele>
        <time>2009-04-06T19:05:39Z</time>
      </trkpt>
      <trkpt lat="50.27767" lon="2.75986">
        <ele>62</ele>
        <time>2009-04-06T19:05:39Z</time>
      </trkpt>
      <trkpt lat="50.27785" lon="2.75985">
        <ele>61</ele>
        <time>2009-04-06T19:05:39Z</time>
      </trkpt>
      <trkpt lat="50.2778" lon="2.7586">
        <ele>63</ele>
        <time>2009-04-06T19:05:39Z</time>
      </trkpt>
      <trkpt lat="50.27817" lon="2.7589">
        <ele>62</ele>
        <time>2009-04-06T19:05:39Z</time>
      </trkpt>
      <trkpt lat="50.27821" lon="2.75867">
        <ele>62</ele>
        <time>2009-04-06T19:05:39Z</time>
      </trkpt>
      <trkpt lat="50.27834" lon="2.75869">
        <ele>62</ele>
        <time>2009-04-06T19:05:39Z</time>
      </trkpt>
      <trkpt lat="50.27841" lon="2.75874">
        <ele>62</ele>
        <time>2009-04-06T19:05:39Z</time>
      </trkpt>
      <trkpt lat="50.27945" lon="2.76056">
        <ele>63</ele>
        <time>2009-04-06T19:05:39Z</time>
      </trkpt>
      <trkpt lat="50.27962" lon="2.76074">
        <ele>63</ele>
        <time>2009-04-06T19:05:39Z</time>
      </trkpt>
      <trkpt lat="50.27962" lon="2.76113">
        <ele>63</ele>
        <time>2009-04-06T19:05:39Z</time>
      </trkpt>
      <trkpt lat="50.27969" lon="2.76159">
        <ele>63</ele>
        <time>2009-04-06T19:05:39Z</time>
      </trkpt>
      <trkpt lat="50.27984" lon="2.76207">
        <ele>63</ele>
        <time>2009-04-06T19:05:39Z</time>
      </trkpt>
      <trkpt lat="50.28017" lon="2.76278">
        <ele>63</ele>
        <time>2009-04-06T19:05:39Z</time>
      </trkpt>
      <trkpt lat="50.28083" lon="2.7639">
        <ele>63</ele>
        <time>2009-04-06T19:05:39Z</time>
      </trkpt>
      <trkpt lat="50.28145" lon="2.765">
        <ele>63</ele>
        <time>2009-04-06T19:05:39Z</time>
      </trkpt>
      <trkpt lat="50.28187" lon="2.76494">
        <ele>63</ele>
        <time>2009-04-06T19:05:39Z</time>
      </trkpt>
      <trkpt lat="50.28269" lon="2.76462">
        <ele>62</ele>
        <time>2009-04-06T19:05:39Z</time>
      </trkpt>
      <trkpt lat="50.2836" lon="2.76405">
        <ele>63</ele>
        <time>2009-04-06T19:05:39Z</time>
      </trkpt>
      <trkpt lat="50.28394" lon="2.76312">
        <ele>65</ele>
        <time>2009-04-06T19:05:39Z</time>
      </trkpt>
      <trkpt lat="50.2843" lon="2.76212">
        <ele>67</ele>
        <time>2009-04-06T19:05:39Z</time>
      </trkpt>
      <trkpt lat="50.28464" lon="2.76267">
        <ele>66</ele>
        <time>2009-04-06T19:05:39Z</time>
      </trkpt>
      <trkpt lat="50.28485" lon="2.76278">
        <ele>66</ele>
        <time>2009-04-06T19:05:39Z</time>
      </trkpt>
      <trkpt lat="50.28558" lon="2.76264">
        <ele>65</ele>
        <time>2009-04-06T19:05:39Z</time>
      </trkpt>
      <trkpt lat="50.28571" lon="2.76271">
        <ele>65</ele>
        <time>2009-04-06T19:05:39Z</time>
      </trkpt>
      <trkpt lat="50.2858" lon="2.76282">
        <ele>64</ele>
        <time>2009-04-06T19:05:39Z</time>
      </trkpt>
      <trkpt lat="50.28727" lon="2.76624">
        <ele>62</ele>
        <time>2009-04-06T19:05:39Z</time>
      </trkpt>
      <trkpt lat="50.28781" lon="2.76755">
        <ele>62</ele>
        <time>2009-04-06T19:05:39Z</time>
      </trkpt>
      <trkpt lat="50.28807" lon="2.76807">
        <ele>61</ele>
        <time>2009-04-06T19:05:39Z</time>
      </trkpt>
      <trkpt lat="50.28938" lon="2.76697">
        <ele>62</ele>
        <time>2009-04-06T19:05:39Z</time>
      </trkpt>
      <trkpt lat="50.28984" lon="2.76842">
        <ele>60</ele>
        <time>2009-04-06T19:05:39Z</time>
      </trkpt>
      <trkpt lat="50.29027" lon="2.76878">
        <ele>60</ele>
        <time>2009-04-06T19:05:39Z</time>
      </trkpt>
      <trkpt lat="50.29108" lon="2.77051">
        <ele>59</ele>
        <time>2009-04-06T19:05:39Z</time>
      </trkpt>
      <trkpt lat="50.29136" lon="2.77101">
        <ele>59</ele>
        <time>2009-04-06T19:05:39Z</time>
      </trkpt>
      <trkpt lat="50.29154" lon="2.77114">
        <ele>59</ele>
        <time>2009-04-06T19:05:39Z</time>
      </trkpt>
      <trkpt lat="50.29161" lon="2.77114">
        <ele>59</ele>
        <time>2009-04-06T19:05:39Z</time>
      </trkpt>
      <trkpt lat="50.29245" lon="2.77182">
        <ele>59</ele>
        <time>2009-04-06T19:05:39Z</time>
      </trkpt>
      <trkpt lat="50.29264" lon="2.77211">
        <ele>59</ele>
        <time>2009-04-06T19:05:39Z</time>
      </trkpt>
      <trkpt lat="50.29382" lon="2.77435">
        <ele>60</ele>
        <time>2009-04-06T19:05:39Z</time>
      </trkpt>
      <trkpt lat="50.29396" lon="2.77421">
        <ele>59</ele>
        <time>2009-04-06T19:05:39Z</time>
      </trkpt>
      <trkpt lat="50.2948" lon="2.77486">
        <ele>59</ele>
        <time>2009-04-06T19:05:39Z</time>
      </trkpt>
      <trkpt lat="50.29592" lon="2.77635">
        <ele>58</ele>
        <time>2009-04-06T19:05:39Z</time>
      </trkpt>
      <trkpt lat="50.2961" lon="2.77722">
        <ele>57</ele>
        <time>2009-04-06T19:05:39Z</time>
      </trkpt>
      <trkpt lat="50.29649" lon="2.77705">
        <ele>57</ele>
        <time>2009-04-06T19:05:39Z</time>
      </trkpt>
      <trkpt lat="50.29687" lon="2.77684">
        <ele>57</ele>
        <time>2009-04-06T19:05:39Z</time>
      </trkpt>
      <trkpt lat="50.29715" lon="2.77684">
        <ele>57</ele>
        <time>2009-04-06T19:05:39Z</time>
      </trkpt>
      <trkpt lat="50.29723" lon="2.7768">
        <ele>57</ele>
        <time>2009-04-06T19:05:39Z</time>
      </trkpt>
      <trkpt lat="50.29731" lon="2.77679">
        <ele>57</ele>
        <time>2009-04-06T19:05:39Z</time>
      </trkpt>
      <trkpt lat="50.29731" lon="2.77588">
        <ele>57</ele>
        <time>2009-04-06T19:05:39Z</time>
      </trkpt>
      <trkpt lat="50.29788" lon="2.77574">
        <ele>56</ele>
        <time>2009-04-06T19:05:39Z</time>
      </trkpt>
      <trkpt lat="50.29804" lon="2.7757">
        <ele>56</ele>
        <time>2009-04-06T19:05:39Z</time>
      </trkpt>
      <trkpt lat="50.29824" lon="2.77574">
        <ele>55</ele>
        <time>2009-04-06T19:05:39Z</time>
      </trkpt>
      <trkpt lat="50.29841" lon="2.77593">
        <ele>55</ele>
        <time>2009-04-06T19:05:39Z</time>
      </trkpt>
      <trkpt lat="50.29867" lon="2.77648">
        <ele>55</ele>
        <time>2009-04-06T19:05:39Z</time>
      </trkpt>
      <trkpt lat="50.29946" lon="2.77502">
        <ele>55</ele>
        <time>2009-04-06T19:05:39Z</time>
      </trkpt>
      <trkpt lat="50.29991" lon="2.77404">
        <ele>55</ele>
        <time>2009-04-06T19:05:39Z</time>
      </trkpt>
      <trkpt lat="50.30026" lon="2.77489">
        <ele>57</ele>
        <time>2009-04-06T19:05:39Z</time>
      </trkpt>
      <trkpt lat="50.30059" lon="2.77518">
        <ele>59</ele>
        <time>2009-04-06T19:05:39Z</time>
      </trkpt>
      <trkpt lat="50.30084" lon="2.77549">
        <ele>61</ele>
        <time>2009-04-06T19:05:39Z</time>
      </trkpt>
      <trkpt lat="50.30111" lon="2.77476">
        <ele>61</ele>
        <time>2009-04-06T19:05:39Z</time>
      </trkpt>
      <trkpt lat="50.30127" lon="2.77441">
        <ele>61</ele>
        <time>2009-04-06T19:05:39Z</time>
      </trkpt>
      <trkpt lat="50.30189" lon="2.77333">
        <ele>61</ele>
        <time>2009-04-06T19:05:39Z</time>
      </trkpt>
      <trkpt lat="50.30225" lon="2.77323">
        <ele>63</ele>
        <time>2009-04-06T19:05:39Z</time>
      </trkpt>
      <trkpt lat="50.30249" lon="2.77321">
        <ele>64</ele>
        <time>2009-04-06T19:05:39Z</time>
      </trkpt>
      <trkpt lat="50.30259" lon="2.7731">
        <ele>63</ele>
        <time>2009-04-06T19:05:39Z</time>
      </trkpt>
      <trkpt lat="50.3027" lon="2.77306">
        <ele>63</ele>
        <time>2009-04-06T19:05:39Z</time>
      </trkpt>
      <trkpt lat="50.30286" lon="2.77304">
        <ele>64</ele>
        <time>2009-04-06T19:05:39Z</time>
      </trkpt>
      <trkpt lat="50.30282" lon="2.77254">
        <ele>62</ele>
        <time>2009-04-06T19:05:39Z</time>
      </trkpt>
      <trkpt lat="50.30279" lon="2.77201">
        <ele>60</ele>
        <time>2009-04-06T19:05:39Z</time>
      </trkpt>
      <trkpt lat="50.30283" lon="2.77194">
        <ele>60</ele>
        <time>2009-04-06T19:05:39Z</time>
      </trkpt>
      <trkpt lat="50.30328" lon="2.77049">
        <ele>57</ele>
        <time>2009-04-06T19:05:39Z</time>
      </trkpt>
      <trkpt lat="50.3036" lon="2.76944">
        <ele>58</ele>
        <time>2009-04-06T19:05:39Z</time>
      </trkpt>
      <trkpt lat="50.30366" lon="2.76926">
        <ele>59</ele>
        <time>2009-04-06T19:05:39Z</time>
      </trkpt>
      <trkpt lat="50.30372" lon="2.76886">
        <ele>59</ele>
        <time>2009-04-06T19:05:39Z</time>
      </trkpt>
      <trkpt lat="50.30379" lon="2.76804">
        <ele>61</ele>
        <time>2009-04-06T19:05:39Z</time>
      </trkpt>
      <trkpt lat="50.30369" lon="2.76757">
        <ele>61</ele>
        <time>2009-04-06T19:05:39Z</time>
      </trkpt>
      <trkpt lat="50.30368" lon="2.76733">
        <ele>60</ele>
        <time>2009-04-06T19:05:39Z</time>
      </trkpt>
      <trkpt lat="50.3036" lon="2.7669">
        <ele>59</ele>
        <time>2009-04-06T19:05:39Z</time>
      </trkpt>
      <trkpt lat="50.30349" lon="2.76653">
        <ele>58</ele>
        <time>2009-04-06T19:05:39Z</time>
      </trkpt>
      <trkpt lat="50.30337" lon="2.76598">
        <ele>57</ele>
        <time>2009-04-06T19:05:39Z</time>
      </trkpt>
      <trkpt lat="50.30332" lon="2.76544">
        <ele>57</ele>
        <time>2009-04-06T19:05:39Z</time>
      </trkpt>
      <trkpt lat="50.30327" lon="2.76466">
        <ele>57</ele>
        <time>2009-04-06T19:05:39Z</time>
      </trkpt>
      <trkpt lat="50.30323" lon="2.7644">
        <ele>57</ele>
        <time>2009-04-06T19:05:39Z</time>
      </trkpt>
      <trkpt lat="50.30306" lon="2.76415">
        <ele>56</ele>
        <time>2009-04-06T19:05:39Z</time>
      </trkpt>
      <trkpt lat="50.30294" lon="2.76344">
        <ele>55</ele>
        <time>2009-04-06T19:05:39Z</time>
      </trkpt>
      <trkpt lat="50.3026" lon="2.76353">
        <ele>55</ele>
        <time>2009-04-06T19:05:39Z</time>
      </trkpt>
      <trkpt lat="50.30173" lon="2.76388">
        <ele>56</ele>
        <time>2009-04-06T19:05:39Z</time>
      </trkpt>
      <trkpt lat="50.30156" lon="2.76396">
        <ele>56</ele>
        <time>2009-04-06T19:05:39Z</time>
      </trkpt>
      <trkpt lat="50.30099" lon="2.76439">
        <ele>57</ele>
        <time>2009-04-06T19:05:39Z</time>
      </trkpt>
      <trkpt lat="50.30065" lon="2.76482">
        <ele>58</ele>
        <time>2009-04-06T19:05:39Z</time>
      </trkpt>
      <trkpt lat="50.30045" lon="2.76437">
        <ele>58</ele>
        <time>2009-04-06T19:05:39Z</time>
      </trkpt>
      <trkpt lat="50.30049" lon="2.76434">
        <ele>58</ele>
        <time>2009-04-06T19:05:39Z</time>
      </trkpt>
    </trkseg>
  </trk>
</gpx>